Weather History for KSAZ - November, 2012

Change the Weather History Date:

Sunday, November 4, 2012

  Actual Average Record
Temperature  
Mean Temperature 34 °F -  
Max Temperature 37 °F 41 °F 66 °F (2008)
Min Temperature 32 °F 26 °F 19 °F (1998)
Degree Days  
Heating Degree Days 30    
Moisture  
Dew Point 27 °F    
Average Humidity 75    
Maximum Humidity 87    
Minimum Humidity 65    
Precipitation  
Precipitation 0.00 in - - ()
Sea Level Pressure  
Sea Level Pressure 30.18 in    
Wind  
Wind Speed 1 mph (East)    
Max Wind Speed 7 mph    
Max Gust Speed -    
Visibility 10 miles    
Events      
Averages and records for this station are not official NWS values.
T = Trace of Precipitation, MM = Missing Value Source: NWS Daily Summary

Daily Weather History Graph

Daily Weather History Graph

Search for Another Location

Airport or City:

Trip Planner

Search our weather history database for the weather conditions in past years. The results will help you decide how hot, cold, wet, or windy it might be!

Date:

Astronomy

Nov. 04, 2012 Rise Set
Actual Time 7:05 AM CST 4:59 PM CST
Civil Twilight 6:33 AM CST 5:31 PM CST
Nautical Twilight 5:58 AM CST 6:06 PM CST
Astronomical Twilight 5:23 AM CST 6:41 PM CST
Moon 9:35 PM CST (11/4) 11:53 AM CST (11/4)
Length of Visible Light 10h 57m
Length of Day
9h 53m
Waning Gibbous, 72% of the Moon is Illuminated
Nov 4
Waning Gibbous
Nov 6
Last Quarter
Nov 13
New
Nov 20
First Quarter
Nov 28
Full

Hourly Weather History & Observations

Time (CST) Temp. Windchill Dew Point Humidity Pressure Visibility Wind Dir Wind Speed Gust Speed Precip Events Conditions
12:13 AM 33.8 °F - 28.4 °F 81% 30.21 in 10.0 mi Calm Calm - N/A   Overcast
12:33 AM 33.8 °F - 28.4 °F 81% 30.21 in 10.0 mi Calm Calm - N/A   Overcast
12:54 AM 33.8 °F - 28.4 °F 81% 30.21 in 10.0 mi Calm Calm - N/A   Overcast
1:13 AM 33.8 °F - 28.4 °F 81% 30.21 in 10.0 mi Calm Calm - N/A   Overcast
1:33 AM 33.8 °F - 28.4 °F 81% 30.21 in 10.0 mi Calm Calm - N/A   Overcast
1:54 AM 32.0 °F - 28.4 °F 87% 30.20 in 10.0 mi Calm Calm - N/A   Overcast
1:13 AM 33.8 °F - 28.4 °F 81% 30.20 in 10.0 mi Calm Calm - N/A   Overcast
1:34 AM 33.8 °F - 26.6 °F 75% 30.21 in 10.0 mi Calm Calm - N/A   Overcast
1:53 AM 33.8 °F - 26.6 °F 75% 30.21 in 10.0 mi Calm Calm - N/A   Overcast
2:13 AM 33.8 °F - 26.6 °F 75% 30.21 in 10.0 mi Calm Calm - N/A   Overcast
2:34 AM 32.0 °F - 26.6 °F 80% 30.21 in 10.0 mi Calm Calm - N/A   Overcast
2:53 AM 32.0 °F - 26.6 °F 80% 30.21 in 10.0 mi Calm Calm - N/A   Overcast
3:13 AM 32.0 °F - 26.6 °F 80% 30.21 in 10.0 mi Calm Calm - N/A   Overcast
3:33 AM 32.0 °F - 26.6 °F 80% 30.21 in 10.0 mi Calm Calm - N/A   Overcast
3:53 AM 32.0 °F - 26.6 °F 80% 30.21 in 10.0 mi Calm Calm - N/A   Overcast
4:13 AM 32.0 °F - 26.6 °F 80% 30.21 in 10.0 mi Calm Calm - N/A   Overcast
4:33 AM 32.0 °F - 28.4 °F 87% 30.21 in 10.0 mi Calm Calm - N/A   Overcast
4:53 AM 32.0 °F - 28.4 °F 87% 30.21 in 10.0 mi Calm Calm - N/A   Overcast
5:13 AM 32.0 °F - 28.4 °F 87% 30.21 in 10.0 mi Calm Calm - N/A   Overcast
5:33 AM 32.0 °F - 28.4 °F 87% 30.21 in 10.0 mi Calm Calm - N/A   Overcast
6:13 AM 32.0 °F - 28.4 °F 87% 30.20 in 10.0 mi Calm Calm - N/A   Overcast
6:33 AM 32.0 °F - 28.4 °F 87% 30.20 in 10.0 mi Calm Calm - N/A   Overcast
6:53 AM 32.0 °F - 28.4 °F 87% 30.20 in 10.0 mi Calm Calm - N/A   Overcast
7:13 AM 32.0 °F - 28.4 °F 87% 30.20 in 10.0 mi Calm Calm - N/A   Overcast
7:33 AM 32.0 °F - 28.4 °F 87% 30.20 in 10.0 mi Calm Calm - N/A   Overcast
7:53 AM 32.0 °F - 28.4 °F 87% 30.20 in 10.0 mi Calm Calm - N/A   Overcast
8:13 AM 32.0 °F - 28.4 °F 87% 30.20 in 10.0 mi Calm Calm - N/A   Overcast
8:33 AM 32.0 °F 27.5 °F 28.4 °F 87% 30.20 in 10.0 mi East 4.6 mph - N/A   Overcast
8:53 AM 33.8 °F 28.6 °F 28.4 °F 81% 30.20 in 10.0 mi East 5.8 mph - N/A   Overcast
9:13 AM 33.8 °F 30.8 °F 28.4 °F 81% 30.19 in 10.0 mi East 3.5 mph - N/A   Overcast
9:34 AM 33.8 °F 28.6 °F 28.4 °F 81% 30.19 in 10.0 mi East 5.8 mph - N/A   Overcast
9:53 AM 33.8 °F 29.6 °F 28.4 °F 81% 30.19 in 10.0 mi East 4.6 mph - N/A   Overcast
10:13 AM 33.8 °F 29.6 °F 28.4 °F 81% 30.19 in 10.0 mi East 4.6 mph - N/A   Overcast
10:34 AM 35.6 °F 32.8 °F 28.4 °F 75% 30.19 in 10.0 mi ESE 3.5 mph - N/A   Overcast
10:53 AM 35.6 °F 31.7 °F 28.4 °F 75% 30.18 in 10.0 mi East 4.6 mph - N/A   Overcast
11:13 AM 35.6 °F 31.7 °F 28.4 °F 75% 30.18 in 10.0 mi ESE 4.6 mph - N/A   Overcast
11:34 AM 35.6 °F 31.7 °F 28.4 °F 75% 30.18 in 10.0 mi East 4.6 mph - N/A   Overcast
11:53 AM 37.4 °F 32.1 °F 28.4 °F 70% 30.17 in 10.0 mi East 6.9 mph - N/A   Overcast
12:13 PM 37.4 °F 32.8 °F 28.4 °F 70% 30.17 in 10.0 mi East 5.8 mph - N/A   Overcast
12:34 PM 37.4 °F 32.8 °F 26.6 °F 65% 30.16 in 10.0 mi SE 5.8 mph - N/A   Overcast
12:53 PM 37.4 °F 33.8 °F 26.6 °F 65% 30.16 in 10.0 mi ESE 4.6 mph - N/A   Overcast
1:13 PM 37.4 °F 32.8 °F 26.6 °F 65% 30.15 in 10.0 mi East 5.8 mph - N/A   Overcast
1:34 PM 37.4 °F 34.9 °F 26.6 °F 65% 30.15 in 10.0 mi East 3.5 mph - N/A   Overcast
1:53 PM 37.4 °F 33.8 °F 26.6 °F 65% 30.15 in 10.0 mi East 4.6 mph - N/A   Overcast
2:13 PM 37.4 °F 34.9 °F 26.6 °F 65% 30.15 in 10.0 mi East 3.5 mph - N/A   Overcast
2:34 PM 37.4 °F 33.8 °F 26.6 °F 65% 30.15 in 10.0 mi ENE 4.6 mph - N/A   Overcast
2:53 PM 37.4 °F 34.9 °F 26.6 °F 65% 30.15 in 10.0 mi ENE 3.5 mph - N/A   Overcast
3:13 PM 37.4 °F 34.9 °F 26.6 °F 65% 30.15 in 10.0 mi ENE 3.5 mph - N/A   Overcast
3:34 PM 37.4 °F 33.8 °F 26.6 °F 65% 30.15 in 10.0 mi ENE 4.6 mph - N/A   Overcast
3:53 PM 37.4 °F 34.9 °F 26.6 °F 65% 30.15 in 10.0 mi NE 3.5 mph - N/A   Overcast
4:13 PM 37.4 °F 34.9 °F 26.6 °F 65% 30.15 in 10.0 mi NE 3.5 mph - N/A   Overcast
4:34 PM 37.4 °F 34.9 °F 26.6 °F 65% 30.15 in 10.0 mi NE 3.5 mph - N/A   Overcast
4:53 PM 37.4 °F 34.9 °F 26.6 °F 65% 30.15 in 10.0 mi NE 3.5 mph - N/A   Overcast
5:14 PM 37.4 °F - 26.6 °F 65% 30.15 in 10.0 mi Calm Calm - N/A   Overcast
5:33 PM 37.4 °F - 26.6 °F 65% 30.15 in 10.0 mi Calm Calm - N/A   Overcast
5:53 PM 35.6 °F - 26.6 °F 70% 30.16 in 10.0 mi Calm Calm - N/A   Overcast
6:14 PM 35.6 °F - 26.6 °F 70% 30.16 in 10.0 mi Calm Calm - N/A   Overcast
6:33 PM 35.6 °F - 26.6 °F 70% 30.17 in 10.0 mi Calm Calm - N/A   Light Drizzle
6:53 PM 35.6 °F - 26.6 °F 70% 30.17 in 10.0 mi Calm Calm - N/A   Overcast
7:13 PM 35.6 °F - 26.6 °F 70% 30.17 in 10.0 mi Calm Calm - N/A   Overcast
7:33 PM 35.6 °F - 26.6 °F 70% 30.17 in 10.0 mi Calm Calm - N/A   Overcast
7:53 PM 35.6 °F 32.8 °F 26.6 °F 70% 30.16 in 10.0 mi NE 3.5 mph - N/A   Overcast
8:13 PM 35.6 °F - 26.6 °F 70% 30.17 in 10.0 mi Calm Calm - N/A   Overcast
8:33 PM 35.6 °F 31.7 °F 26.6 °F 70% 30.17 in 10.0 mi NE 4.6 mph - N/A   Overcast
8:53 PM 37.4 °F 34.9 °F 26.6 °F 65% 30.17 in 10.0 mi ENE 3.5 mph - N/A   Overcast
9:13 PM 37.4 °F 33.8 °F 26.6 °F 65% 30.17 in 10.0 mi NE 4.6 mph - N/A   Overcast
9:33 PM 35.6 °F 32.8 °F 26.6 °F 70% 30.17 in 10.0 mi ENE 3.5 mph - N/A   Overcast
9:54 PM 35.6 °F 32.8 °F 26.6 °F 70% 30.17 in 10.0 mi NE 3.5 mph - N/A   Overcast
10:13 PM 35.6 °F 32.8 °F 26.6 °F 70% 30.18 in 10.0 mi ENE 3.5 mph - N/A   Overcast
10:33 PM 35.6 °F 32.8 °F 26.6 °F 70% 30.18 in 10.0 mi NE 3.5 mph - N/A   Overcast
10:53 PM 35.6 °F 32.8 °F 26.6 °F 70% 30.18 in 10.0 mi ENE 3.5 mph - N/A   Overcast